• In Schweiz
  • Länderverzeichnis
  • Für 7 Tage
  • Wassertemperatur
  • Satellitenkarten
  • Wetterkarte
  • Widgets
  • user-avatar
    Anmelden

    Stündliche Wetter Polinovo

    Heute, 25 September, Dienstag

    Zeit Temperatur Niederschläge Wind Luftdruck Luftfeuchtigkeit
    00:00 +5°C° 0 mm 6 m/S 747 mmHg 81%
    01:00 +5°C° 0 mm 5 m/S 747 mmHg 82%
    02:00 +5°C° 0 mm 5 m/S 748 mmHg 83%
    03:00 +3°C° 0 mm 5 m/S 749 mmHg 83%
    04:00 +3°C° 0 mm 5 m/S 749 mmHg 84%
    05:00 +3°C° 0 mm 5 m/S 750 mmHg 84%
    06:00 +3°C° 0 mm 5 m/S 750 mmHg 81%
    07:00 +4°C° 0 mm 6 m/S 751 mmHg 78%
    08:00 +5°C° 0 mm 6 m/S 751 mmHg 75%
    09:00 +7°C° 0 mm 6 m/S 752 mmHg 69%
    10:00 +8°C° 0 mm 7 m/S 752 mmHg 63%
    11:00 +9°C° 0 mm 7 m/S 753 mmHg 57%
    12:00 +10°C° 0.2 mm 7 m/S 753 mmHg 57%
    13:00 +10°C° 0.2 mm 7 m/S 753 mmHg 57%
    14:00 +10°C° 0.2 mm 7 m/S 754 mmHg 56%
    15:00 +10°C° 0.1 mm 7 m/S 754 mmHg 58%
    16:00 +9°C° 0.1 mm 6 m/S 754 mmHg 60%
    17:00 +9°C° 0.1 mm 5 m/S 755 mmHg 63%
    18:00 +8°C° 0 mm 5 m/S 756 mmHg 66%
    19:00 +7°C° 0 mm 5 m/S 756 mmHg 69%
    20:00 +6°C° 0 mm 4 m/S 757 mmHg 73%
    21:00 +5°C° 0 mm 4 m/S 758 mmHg 75%
    22:00 +5°C° 0 mm 4 m/S 758 mmHg 77%
    23:00 +4°C° 0 mm 4 m/S 759 mmHg 79%

    Morgen, 26 September, Mittwoch

    Zeit Temperatur Niederschläge Wind Luftdruck Luftfeuchtigkeit
    00:00 +4°C° 0 mm 4 m/S 759 mmHg 81%
    01:00 +4°C° 0 mm 3 m/S 760 mmHg 84%
    02:00 +3°C° 0 mm 3 m/S 760 mmHg 86%
    03:00 +3°C° 0 mm 3 m/S 760 mmHg 87%
    04:00 +2°C° 0 mm 3 m/S 761 mmHg 88%
    05:00 +3°C° 0 mm 2 m/S 761 mmHg 89%
    06:00 +3°C° 0 mm 3 m/S 761 mmHg 85%
    07:00 +4°C° 0 mm 3 m/S 761 mmHg 81%
    08:00 +5°C° 0 mm 3 m/S 761 mmHg 77%
    09:00 +7°C° 0 mm 3 m/S 761 mmHg 69%
    10:00 +8°C° 0 mm 4 m/S 761 mmHg 61%
    11:00 +11°C° 0 mm 4 m/S 761 mmHg 52%
    12:00 +10°C° 0 mm 5 m/S 760 mmHg 51%
    13:00 +12°C° 0 mm 5 m/S 760 mmHg 50%
    14:00 +11°C° 0 mm 6 m/S 759 mmHg 49%
    15:00 +12°C° 0 mm 5 m/S 758 mmHg 52%
    16:00 +12°C° 0 mm 5 m/S 758 mmHg 55%
    17:00 +11°C° 0 mm 4 m/S 757 mmHg 58%
    18:00 +9°C° 0.2 mm 5 m/S 757 mmHg 63%
    19:00 +9°C° 0.2 mm 5 m/S 757 mmHg 67%
    20:00 +8°C° 0.2 mm 5 m/S 756 mmHg 72%
    21:00 +8°C° 0 mm 6 m/S 756 mmHg 72%
    22:00 +8°C° 0 mm 6 m/S 755 mmHg 72%
    23:00 +8°C° 0 mm 6 m/S 755 mmHg 71%

    übermorgen, 27 September, Donnerstag

    Zeit Temperatur Niederschläge Wind Luftdruck Luftfeuchtigkeit
    00:00 +8°C° 0.3 mm 6 m/S 754 mmHg 72%
    01:00 +8°C° 0.3 mm 6 m/S 753 mmHg 73%
    02:00 +8°C° 0.3 mm 6 m/S 753 mmHg 74%
    03:00 +8°C° 0.5 mm 6 m/S 752 mmHg 74%
    04:00 +9°C° 0.5 mm 6 m/S 752 mmHg 73%
    05:00 +9°C° 0.5 mm 6 m/S 751 mmHg 73%
    06:00 +9°C° 0.1 mm 7 m/S 751 mmHg 72%
    07:00 +9°C° 0.1 mm 7 m/S 751 mmHg 72%
    08:00 +9°C° 0.1 mm 7 m/S 751 mmHg 72%
    09:00 +10°C° 0 mm 7 m/S 751 mmHg 73%
    10:00 +11°C° 0 mm 7 m/S 751 mmHg 74%
    11:00 +12°C° 0 mm 7 m/S 751 mmHg 75%
    12:00 +12°C° 0 mm 7 m/S 751 mmHg 77%
    13:00 +14°C° 0 mm 7 m/S 751 mmHg 78%
    14:00 +14°C° 0 mm 6 m/S 751 mmHg 80%
    15:00 +14°C° 0 mm 6 m/S 751 mmHg 81%
    16:00 +15°C° 0 mm 6 m/S 751 mmHg 81%
    17:00 +15°C° 0 mm 5 m/S 751 mmHg 81%
    18:00 +15°C° 0 mm 5 m/S 751 mmHg 83%
    19:00 +14°C° 0 mm 4 m/S 751 mmHg 86%
    20:00 +14°C° 0 mm 4 m/S 751 mmHg 88%
    21:00 +13°C° 0 mm 4 m/S 751 mmHg 89%
    22:00 +13°C° 0 mm 4 m/S 751 mmHg 90%
    23:00 +13°C° 0 mm 4 m/S 751 mmHg 92%

    28 September, Freitag

    Zeit Temperatur Niederschläge Wind Luftdruck Luftfeuchtigkeit
    00:00 +12°C° 0 mm 4 m/S 751 mmHg 93%
    01:00 +12°C° 0 mm 4 m/S 750 mmHg 93%
    02:00 +12°C° 0 mm 4 m/S 750 mmHg 94%
    03:00 +12°C° 0 mm 4 m/S 750 mmHg 94%
    04:00 +12°C° 0 mm 5 m/S 749 mmHg 94%
    05:00 +12°C° 0 mm 5 m/S 749 mmHg 93%
    06:00 +11°C° 0 mm 6 m/S 748 mmHg 91%
    07:00 +13°C° 0 mm 6 m/S 748 mmHg 89%
    08:00 +13°C° 0 mm 6 m/S 748 mmHg 87%
    09:00 +14°C° 0.2 mm 6 m/S 748 mmHg 85%
    10:00 +15°C° 0.2 mm 6 m/S 748 mmHg 83%
    11:00 +15°C° 0.2 mm 7 m/S 748 mmHg 81%
    12:00 +15°C° 0.1 mm 6 m/S 748 mmHg 79%
    13:00 +15°C° 0.1 mm 6 m/S 748 mmHg 77%
    14:00 +15°C° 0.1 mm 6 m/S 748 mmHg 75%
    15:00 +15°C° 0 mm 5 m/S 748 mmHg 72%
    16:00 +15°C° 0 mm 4 m/S 748 mmHg 70%
    17:00 +14°C° 0 mm 3 m/S 749 mmHg 67%
    18:00 +13°C° 0 mm 3 m/S 749 mmHg 70%
    19:00 +12°C° 0 mm 2 m/S 749 mmHg 72%
    20:00 +10°C° 0 mm 2 m/S 749 mmHg 75%
    21:00 +9°C° 0 mm 2 m/S 750 mmHg 76%
    22:00 +9°C° 0 mm 2 m/S 750 mmHg 77%
    23:00 +8°C° 0 mm 2 m/S 750 mmHg 78%

    29 September, Samstag

    Zeit Temperatur Niederschläge Wind Luftdruck Luftfeuchtigkeit
    00:00 +8°C° 0 mm 2 m/S 750 mmHg 80%
    01:00 +8°C° 0 mm 2 m/S 750 mmHg 81%
    02:00 +7°C° 0 mm 2 m/S 750 mmHg 83%
    03:00 +7°C° 0 mm 2 m/S 750 mmHg 84%
    04:00 +8°C° 0 mm 2 m/S 750 mmHg 84%
    05:00 +8°C° 0 mm 2 m/S 750 mmHg 85%
    06:00 +8°C° 0 mm 2 m/S 750 mmHg 84%
    07:00 +8°C° 0 mm 2 m/S 750 mmHg 84%
    08:00 +8°C° 0 mm 3 m/S 751 mmHg 83%
    09:00 +10°C° 0 mm 3 m/S 751 mmHg 76%
    10:00 +11°C° 0 mm 3 m/S 751 mmHg 68%
    11:00 +12°C° 0 mm 4 m/S 752 mmHg 61%
    12:00 +12°C° 0 mm 4 m/S 752 mmHg 58%
    13:00 +13°C° 0 mm 4 m/S 752 mmHg 55%
    14:00 +13°C° 0 mm 4 m/S 752 mmHg 52%
    15:00 +12°C° 0 mm 4 m/S 752 mmHg 55%
    16:00 +12°C° 0 mm 3 m/S 752 mmHg 57%
    17:00 +11°C° 0 mm 3 m/S 752 mmHg 59%
    18:00 +10°C° 0 mm 3 m/S 753 mmHg 62%
    19:00 +8°C° 0 mm 2 m/S 753 mmHg 65%
    20:00 +7°C° 0 mm 2 m/S 754 mmHg 68%
    21:00 +6°C° 0 mm 2 m/S 754 mmHg 69%
    22:00 +6°C° 0 mm 2 m/S 754 mmHg 70%
    23:00 +6°C° 0 mm 1 m/S 754 mmHg 71%

    30 September, Sonntag

    Zeit Temperatur Niederschläge Wind Luftdruck Luftfeuchtigkeit
    00:00 +6°C° 0 mm 1 m/S 754 mmHg 73%
    01:00 +5°C° 0 mm 1 m/S 754 mmHg 76%
    02:00 +5°C° 0 mm 1 m/S 754 mmHg 78%
    03:00 +5°C° 0 mm 1 m/S 754 mmHg 80%
    04:00 +5°C° 0 mm 1 m/S 754 mmHg 82%
    05:00 +4°C° 0 mm 1 m/S 753 mmHg 84%
    06:00 +5°C° 0 mm 1 m/S 753 mmHg 82%
    07:00 +6°C° 0 mm 1 m/S 753 mmHg 80%
    08:00 +6°C° 0 mm 1 m/S 753 mmHg 78%
    09:00 +8°C° 0 mm 1 m/S 753 mmHg 71%
    10:00 +9°C° 0 mm 2 m/S 753 mmHg 63%
    11:00 +12°C° 0 mm 2 m/S 752 mmHg 56%
    12:00 +12°C° 0 mm 2 m/S 752 mmHg 52%
    13:00 +13°C° 0 mm 2 m/S 751 mmHg 49%
    14:00 +14°C° 0 mm 2 m/S 750 mmHg 45%
    15:00 +13°C° 0 mm 2 m/S 750 mmHg 49%
    16:00 +13°C° 0 mm 2 m/S 750 mmHg 53%
    17:00 +13°C° 0 mm 2 m/S 749 mmHg 56%
    18:00 +10°C° 0 mm 2 m/S 749 mmHg 59%
    19:00 +9°C° 0 mm 2 m/S 749 mmHg 61%
    20:00 +8°C° 0 mm 2 m/S 748 mmHg 64%
    21:00 +8°C° 0 mm 2 m/S 748 mmHg 65%
    22:00 +7°C° 0 mm 2 m/S 748 mmHg 67%
    23:00 +7°C° 0 mm 2 m/S 747 mmHg 68%
    Mehr zeigen